STARLINK-4270 (52863 NORAD) Tracking and Keplerian Element Data

This shows tracking and keplerian element data for the satellite.

Feedback or suggestion? Click here.




ElementValue
Catalog52863
NameSTARLINK-4270
Epoch Orbit1628
Epoch Day270.25001157
Epoch Year2022
RAAN277.9488
Inclination53.2163
Eccentricity0.000202
Argument of Perigee47.5062
Mean Anonmoly345.8712
Mean Motion15.08845776
Decay Rate-0.00045773
L11 52863U 22062AK 22270.25001157 -.00045773 00000+0 -28757-2 0 9998
L22 52863 53.2163 277.9488 0002020 47.5062 345.8712 15.08845776 16287

Live tracking and technical data element details for STARLINK-4270 (NORAD 52863). STARLINK-4270 can be tracked NOW for your location showing map with azimuth and elevation plus other details from your city location.

Track the satellite on the map from your city or location and see movement details for azimuth, elevation, latitude, longitude, range, height, and movement on the map or in text.







IsCatalogInMostPopularTable: catalog: 52863, numindb: 5
Update: records affected: 1



GetName: 52863 STARLINK-4270

Hit Count: updated at: Thu, 06 Oct 2022 05:15:17 GMT